Location: Grossmotten
(48.5500°N, 15.3833°E)
Time: 10:45:50
(UTC+00:00)

STARLINK-80 - Pass Details

Date: 15 November 2019
Orbit: 492 x 497 km, 53.0° (Epoch: 09 December)

Event Time Altitude Azimuth Distance (km) Brightness Sun altitude
Exits shadow 04:40:42 13° 232° (SW) 1,522 5.5 -14.1°
Maximum altitude 04:44:05 70° 150° (SSE) 534 3.6 -13.5°
Drops below altitude 10° 04:47:55 10° 67° (ENE) 1,704 7.0 -12.9°
Sets 04:50:06 0° 65° (ENE) 2,590 7.9 -12.5°
